| time (UTC) | temp F | wind direction | speed MPH | gust MPH | rain 1hr in | rain 24hr in | rain mn in | humidity % | barometer mb |
| 20260507033528 | 54 | 179 | 2.0 | 4.0 | 0.00 | 0.01 | 0.01 | 58 | 1024.4 |
| 20260507033039 | 54 | 179 | 2.0 | 4.0 | 0.00 | 0.01 | 0.01 | 56 | 1024.3 |
| 20260507032524 | 54 | 179 | 1.0 | 3.0 | 0.00 | 0.01 | 0.01 | 53 | 1024.2 |
| 20260507032024 | 54 | 179 | 1.0 | 3.0 | 0.00 | 0.01 | 0.01 | 51 | 1024.2 |
| 20260507031545 | 55 | 179 | 1.0 | 3.0 | 0.00 | 0.01 | 0.01 | 49 | 1024.1 |
| 20260507031026 | 55 | 179 | 2.0 | 3.0 | 0.00 | 0.01 | 0.01 | 49 | 1024.0 |
| 20260507030526 | 55 | 179 | 2.0 | 4.0 | 0.00 | 0.01 | 0.01 | 49 | 1024.0 |
| 20260507030044 | 55 | 179 | 1.0 | 4.0 | 0.00 | 0.01 | 0.01 | 48 | 1024.0 |
| 20260507025525 | 55 | 179 | 2.0 | 4.0 | 0.00 | 0.01 | 0.01 | 47 | 1023.8 |
| 20260507025025 | 55 | 179 | 2.0 | 3.0 | 0.00 | 0.01 | 0.01 | 48 | 1023.8 |
| 20260507024541 | 55 | 179 | 1.0 | 3.0 | 0.00 | 0.01 | 0.01 | 47 | 1023.8 |
| 20260507024024 | 56 | 179 | 1.0 | 3.0 | 0.00 | 0.01 | 0.01 | 50 | 1023.8 |
| 20260507023526 | 56 | 179 | 1.0 | 3.0 | 0.00 | 0.01 | 0.01 | 49 | 1023.8 |
| 20260507023038 | 57 | 179 | 2.0 | 4.0 | 0.00 | 0.01 | 0.01 | 48 | 1023.7 |
| 20260507022525 | 57 | 179 | 2.0 | 4.0 | 0.00 | 0.01 | 0.01 | 48 | 1023.7 |
| 20260507022026 | 58 | 179 | 2.0 | 4.0 | 0.00 | 0.01 | 0.01 | 47 | 1023.6 |
| 20260507021544 | 58 | 179 | 2.0 | 3.0 | 0.00 | 0.01 | 0.01 | 45 | 1023.6 |
| 20260507021027 | 59 | 179 | 1.0 | 3.0 | 0.00 | 0.01 | 0.01 | 46 | 1023.5 |
| 20260507020526 | 59 | 179 | 1.0 | 2.0 | 0.00 | 0.01 | 0.01 | 46 | 1023.5 |
| 20260507020047 | 59 | 179 | 1.0 | 2.0 | 0.00 | 0.01 | 0.01 | 46 | 1023.6 |
| 20260507015526 | 60 | 179 | 1.0 | 2.0 | 0.00 | 0.01 | 0.01 | 47 | 1023.6 |
| 20260507015024 | 60 | 179 | 1.0 | 2.0 | 0.00 | 0.01 | 0.01 | 47 | 1023.6 |
| 20260507014549 | 60 | 179 | 0.0 | 2.0 | 0.00 | 0.01 | 0.01 | 39 | 1023.6 |
| 20260507014026 | 60 | 0 | 0.0 | 1.0 | 0.00 | 0.01 | 0.01 | 37 | 1023.6 |
| 20260507013525 | 60 | 0 | 0.0 | 1.0 | 0.00 | 0.01 | 0.01 | 36 | 1023.5 |
| 20260507013050 | 60 | 179 | 0.0 | 1.0 | 0.00 | 0.01 | 0.01 | 34 | 1023.5 |
| 20260507012524 | 60 | 0 | 0.0 | 1.0 | 0.00 | 0.01 | 0.01 | 35 | 1023.5 |
| 20260507012024 | 60 | 0 | 0.0 | 1.0 | 0.00 | 0.01 | 0.01 | 35 | 1023.5 |
| 20260507011538 | 60 | 0 | 0.0 | 2.0 | 0.00 | 0.01 | 0.01 | 34 | 1023.6 |
| 20260507011023 | 60 | 0 | 0.0 | 2.0 | 0.00 | 0.01 | 0.01 | 34 | 1023.6 |
| 20260507010530 | 60 | 179 | 0.0 | 2.0 | 0.00 | 0.01 | 0.01 | 36 | 1023.5 |
| 20260507010055 | 60 | 179 | 0.0 | 3.0 | 0.00 | 0.01 | 0.01 | 39 | 1023.6 |
| 20260507005528 | 60 | 179 | 1.0 | 3.0 | 0.00 | 0.01 | 0.01 | 45 | 1023.6 |
| 20260507005026 | 60 | 179 | 1.0 | 3.0 | 0.00 | 0.01 | 0.01 | 42 | 1023.7 |
| 20260507004546 | 60 | 179 | 1.0 | 3.0 | 0.00 | 0.01 | 0.01 | 40 | 1023.6 |
| 20260507004028 | 60 | 0 | 0.0 | 3.0 | 0.00 | 0.01 | 0.01 | 44 | 1023.7 |
| 20260507003527 | 59 | 179 | 0.0 | 4.0 | 0.00 | 0.01 | 0.01 | 49 | 1023.7 |
| 20260507003045 | 60 | 179 | 2.0 | 4.0 | 0.00 | 0.01 | 0.01 | 49 | 1023.6 |
| 20260507002526 | 60 | 179 | 2.0 | 4.0 | 0.00 | 0.01 | 0.01 | 54 | 1023.6 |
| 20260507002028 | 61 | 179 | 2.0 | 4.0 | 0.00 | 0.01 | 0.01 | 53 | 1023.6 |
| 20260507001539 | 61 | 179 | 1.0 | 4.0 | 0.00 | 0.01 | 0.01 | 50 | 1023.5 |
| 20260507001027 | 61 | 179 | 2.0 | 4.0 | 0.00 | 0.01 | 0.01 | 47 | 1023.6 |
| 20260507000529 | 61 | 179 | 2.0 | 4.0 | 0.00 | 0.01 | 0.01 | 48 | 1023.6 |
| 20260507000047 | 61 | 179 | 1.0 | 4.0 | 0.00 | 0.01 | 0.01 | 49 | 1023.5 |
| 20260506235528 | 61 | 179 | 3.0 | 4.0 | 0.00 | 0.01 | 0.01 | 51 | 1023.5 |
| 20260506235027 | 62 | 180 | 1.0 | 4.0 | 0.00 | 0.01 | 0.01 | 52 | 1023.6 |
| 20260506234545 | 62 | 180 | 2.0 | 4.0 | 0.00 | 0.01 | 0.01 | 52 | 1023.5 |
| 20260506234028 | 62 | 180 | 1.0 | 4.0 | 0.00 | 0.01 | 0.01 | 49 | 1023.5 |
| 20260506233526 | 62 | 180 | 1.0 | 4.0 | 0.00 | 0.01 | 0.01 | 49 | 1023.6 |
| 20260506233059 | 62 | 180 | 2.0 | 4.0 | 0.00 | 0.01 | 0.01 | 42 | 1023.6 |
| 20260506232529 | 63 | 180 | 2.0 | 5.0 | 0.00 | 0.01 | 0.01 | 47 | 1023.6 |
| 20260506232025 | 64 | 180 | 2.0 | 7.0 | 0.00 | 0.01 | 0.01 | 47 | 1023.6 |
| 20260506231543 | 64 | 178 | 3.0 | 7.0 | 0.00 | 0.01 | 0.01 | 35 | 1023.6 |
| 20260506231027 | 64 | 175 | 2.0 | 7.0 | 0.00 | 0.01 | 0.01 | 32 | 1023.6 |
| 20260506230525 | 64 | 186 | 2.0 | 6.0 | 0.00 | 0.01 | 0.01 | 34 | 1023.7 |
| 20260506230042 | 65 | 188 | 3.0 | 6.0 | 0.00 | 0.01 | 0.01 | 33 | 1023.7 |
| 20260506225531 | 65 | 179 | 1.0 | 5.0 | 0.00 | 0.01 | 0.01 | 36 | 1023.8 |
| 20260506225028 | 65 | 180 | 2.0 | 6.0 | 0.00 | 0.01 | 0.01 | 33 | 1023.8 |
| 20260506224545 | 64 | 184 | 1.0 | 6.0 | 0.00 | 0.01 | 0.01 | 34 | 1023.8 |
| 20260506224028 | 64 | 161 | 3.0 | 6.0 | 0.00 | 0.01 | 0.01 | 32 | 1023.9 |
| 20260506223528 | 64 | 158 | 2.0 | 6.0 | 0.00 | 0.01 | 0.01 | 36 | 1023.8 |
| 20260506223047 | 63 | 157 | 2.0 | 7.0 | 0.00 | 0.01 | 0.01 | 38 | 1023.9 |
| 20260506222526 | 63 | 183 | 2.0 | 7.0 | 0.00 | 0.01 | 0.01 | 35 | 1023.9 |
| 20260506222030 | 64 | 186 | 4.0 | 7.0 | 0.00 | 0.01 | 0.01 | 33 | 1024.1 |
| 20260506221548 | 64 | 145 | 3.0 | 7.0 | 0.00 | 0.01 | 0.01 | 30 | 1024.1 |
| 20260506221026 | 65 | 198 | 3.0 | 7.0 | 0.00 | 0.01 | 0.01 | 33 | 1024.2 |
| 20260506220527 | 65 | 187 | 3.0 | 6.0 | 0.00 | 0.01 | 0.01 | 31 | 1024.2 |
| 20260506220046 | 66 | 204 | 2.0 | 6.0 | 0.00 | 0.01 | 0.01 | 34 | 1024.2 |
| 20260506215527 | 65 | 177 | 1.0 | 7.0 | 0.00 | 0.01 | 0.01 | 33 | 1024.3 |
| 20260506215027 | 65 | 182 | 2.0 | 7.0 | 0.00 | 0.01 | 0.01 | 38 | 1024.3 |
| 20260506214539 | 65 | 202 | 1.0 | 5.0 | 0.00 | 0.01 | 0.01 | 37 | 1024.4 |
| 20260506214023 | 64 | 202 | 3.0 | 7.0 | 0.00 | 0.01 | 0.01 | 34 | 1024.3 |
| 20260506213528 | 63 | 189 | 2.0 | 8.0 | 0.00 | 0.01 | 0.01 | 37 | 1024.3 |
| 20260506213046 | 63 | 188 | 3.0 | 8.0 | 0.00 | 0.01 | 0.01 | 42 | 1024.3 |
| 20260506212528 | 62 | 150 | 2.0 | 7.0 | 0.00 | 0.01 | 0.01 | 39 | 1024.3 |
| 20260506212028 | 63 | 175 | 2.0 | 7.0 | 0.00 | 0.01 | 0.01 | 43 | 1024.3 |
| 20260506211544 | 63 | 186 | 4.0 | 7.0 | 0.00 | 0.01 | 0.01 | 44 | 1024.4 |
| 20260506211026 | 62 | 193 | 3.0 | 6.0 | 0.00 | 0.01 | 0.01 | 46 | 1024.4 |
| 20260506210527 | 61 | 197 | 2.0 | 7.0 | 0.00 | 0.01 | 0.01 | 50 | 1024.4 |
| 20260506210047 | 61 | 186 | 2.0 | 7.0 | 0.00 | 0.01 | 0.01 | 49 | 1024.4 |
| 20260506205527 | 61 | 185 | 3.0 | 7.0 | 0.00 | 0.01 | 0.01 | 49 | 1024.5 |
| 20260506205027 | 62 | 175 | 3.0 | 7.0 | 0.00 | 0.01 | 0.01 | 45 | 1024.6 |
| 20260506204541 | 62 | 185 | 3.0 | 6.0 | 0.00 | 0.01 | 0.01 | 45 | 1024.6 |
| 20260506204027 | 61 | 188 | 3.0 | 6.0 | 0.00 | 0.01 | 0.01 | 45 | 1024.5 |
| 20260506203529 | 61 | 187 | 2.0 | 7.0 | 0.00 | 0.01 | 0.01 | 50 | 1024.5 |
| 20260506203040 | 61 | 169 | 3.0 | 7.0 | 0.00 | 0.01 | 0.01 | 48 | 1024.5 |
| 20260506202528 | 61 | 187 | 2.0 | 6.0 | 0.00 | 0.01 | 0.01 | 51 | 1024.5 |
| 20260506202025 | 61 | 180 | 2.0 | 6.0 | 0.00 | 0.01 | 0.01 | 53 | 1024.5 |
| 20260506201545 | 60 | 181 | 3.0 | 6.0 | 0.00 | 0.01 | 0.01 | 53 | 1024.6 |
| 20260506201027 | 61 | 169 | 4.0 | 6.0 | 0.00 | 0.01 | 0.01 | 55 | 1024.6 |
| 20260506200526 | 61 | 178 | 2.0 | 6.0 | 0.00 | 0.01 | 0.01 | 54 | 1024.6 |
| 20260506200047 | 60 | 184 | 2.0 | 4.0 | 0.00 | 0.01 | 0.01 | 56 | 1024.6 |
| 20260506195527 | 59 | 181 | 1.0 | 5.0 | 0.00 | 0.01 | 0.01 | 57 | 1024.6 |
| 20260506195029 | 58 | 181 | 1.0 | 7.0 | 0.00 | 0.01 | 0.01 | 62 | 1024.6 |
| 20260506194547 | 58 | 181 | 3.0 | 8.0 | 0.00 | 0.01 | 0.01 | 60 | 1024.7 |
| 20260506194027 | 57 | 174 | 3.0 | 8.0 | 0.00 | 0.01 | 0.01 | 63 | 1024.8 |
| 20260506193527 | 57 | 163 | 4.0 | 8.0 | 0.00 | 0.01 | 0.01 | 63 | 1024.7 |
| 20260506193042 | 57 | 167 | 2.0 | 6.0 | 0.00 | 0.01 | 0.01 | 65 | 1024.6 |
| 20260506192525 | 57 | 178 | 2.0 | 6.0 | 0.00 | 0.01 | 0.01 | 64 | 1024.7 |
| 20260506192027 | 57 | 173 | 2.0 | 6.0 | 0.00 | 0.01 | 0.01 | 63 | 1024.7 |
| 20260506191548 | 57 | 189 | 3.0 | 7.0 | 0.00 | 0.01 | 0.01 | 63 | 1024.7 |
| 20260506191025 | 58 | 196 | 3.0 | 7.0 | 0.00 | 0.01 | 0.01 | 60 | 1024.7 |
| 20260506190525 | 58 | 176 | 3.0 | 6.0 | 0.00 | 0.01 | 0.01 | 55 | 1024.7 |
| 20260506190047 | 58 | 192 | 2.0 | 6.0 | 0.00 | 0.01 | 0.01 | 61 | 1024.6 |
| 20260506185525 | 58 | 193 | 3.0 | 6.0 | 0.00 | 0.01 | 0.01 | 59 | 1024.6 |
| 20260506185025 | 58 | 169 | 2.0 | 6.0 | 0.00 | 0.01 | 0.01 | 58 | 1024.6 |
| 20260506184542 | 59 | 164 | 2.0 | 6.0 | 0.00 | 0.01 | 0.01 | 55 | 1024.7 |
| 20260506184027 | 58 | 181 | 2.0 | 6.0 | 0.00 | 0.01 | 0.01 | 59 | 1024.6 |
| 20260506183527 | 57 | 179 | 1.0 | 5.0 | 0.00 | 0.01 | 0.01 | 58 | 1024.7 |
| 20260506183043 | 57 | 180 | 2.0 | 5.0 | 0.00 | 0.01 | 0.01 | 56 | 1024.6 |
| 20260506182525 | 57 | 180 | 2.0 | 5.0 | 0.00 | 0.01 | 0.01 | 58 | 1024.6 |
| 20260506182026 | 57 | 180 | 1.0 | 7.0 | 0.00 | 0.01 | 0.01 | 59 | 1024.7 |
| 20260506181545 | 57 | 177 | 2.0 | 7.0 | 0.00 | 0.01 | 0.01 | 61 | 1024.5 |
| 20260506181027 | 56 | 192 | 2.0 | 7.0 | 0.00 | 0.01 | 0.01 | 63 | 1024.6 |
| 20260506180525 | 56 | 198 | 3.0 | 7.0 | 0.00 | 0.01 | 0.01 | 62 | 1024.5 |
| 20260506180042 | 56 | 184 | 3.0 | 6.0 | 0.00 | 0.01 | 0.01 | 64 | 1024.5 |
| 20260506175526 | 55 | 186 | 2.0 | 6.0 | 0.00 | 0.02 | 0.01 | 65 | 1024.4 |
| 20260506175024 | 55 | 142 | 2.0 | 6.0 | 0.00 | 0.02 | 0.01 | 65 | 1024.5 |
| 20260506174547 | 54 | 190 | 4.0 | 6.0 | 0.00 | 0.02 | 0.01 | 69 | 1024.4 |
| 20260506174027 | 55 | 184 | 0.0 | 0.0 | 0.00 | 0.02 | 0.01 | 68 | 1024.4 |
| 20260506173528 | 54 | 0 | 0.0 | 0.0 | 0.00 | 0.02 | 0.01 | 72 | 1024.4 |
| 20260506173104 | 54 | 0 | 0.0 | 0.0 | 0.00 | 0.02 | 0.01 | 70 | 1024.4 |
| 20260506172527 | 54 | 0 | 0.0 | 0.0 | 0.00 | 0.02 | 0.01 | 72 | 1024.4 |
| 20260506172025 | 54 | 0 | 0.0 | 0.0 | 0.00 | 0.02 | 0.01 | 71 | 1024.3 |
| 20260506171550 | 54 | 0 | 0.0 | 0.0 | 0.00 | 0.02 | 0.01 | 71 | 1024.3 |
| 20260506171027 | 53 | 0 | 0.0 | 0.0 | 0.00 | 0.02 | 0.01 | 73 | 1024.3 |
| 20260506170526 | 53 | 0 | 0.0 | 0.0 | 0.00 | 0.02 | 0.01 | 73 | 1024.2 |
| 20260506170042 | 52 | 0 | 0.0 | 0.0 | 0.00 | 0.02 | 0.01 | 75 | 1024.4 |
| 20260506165525 | 52 | 0 | 0.0 | 0.0 | 0.00 | 0.06 | 0.01 | 76 | 1024.3 |
| 20260506165025 | 52 | 0 | 0.0 | 0.0 | 0.00 | 0.06 | 0.01 | 75 | 1024.4 |
| 20260506164558 | 51 | 0 | 0.0 | 0.0 | 0.00 | 0.06 | 0.01 | 78 | 1024.4 |
| 20260506164024 | 50 | 0 | 0.0 | 0.0 | 0.00 | 0.06 | 0.01 | 80 | 1024.2 |
| 20260506163525 | 50 | 0 | 0.0 | 0.0 | 0.00 | 0.06 | 0.01 | 80 | 1024.3 |
| 20260506163045 | 49 | 0 | 0.0 | 0.0 | 0.00 | 0.06 | 0.01 | 81 | 1024.3 |
| 20260506162528 | 49 | 0 | 0.0 | 0.0 | 0.00 | 0.06 | 0.01 | 83 | 1024.3 |
| 20260506162027 | 48 | 0 | 0.0 | 0.0 | 0.00 | 0.06 | 0.01 | 83 | 1024.2 |
| 20260506161548 | 48 | 0 | 0.0 | 0.0 | 0.00 | 0.06 | 0.01 | 83 | 1024.2 |
| 20260506161030 | 49 | 0 | 0.0 | 0.0 | 0.00 | 0.06 | 0.01 | 83 | 1024.2 |
| 20260506160528 | 48 | 0 | 0.0 | 0.0 | 0.00 | 0.06 | 0.01 | 83 | 1024.2 |
| 20260506160059 | 48 | 0 | 0.0 | 0.0 | 0.00 | 0.06 | 0.01 | 83 | 1024.2 |
| 20260506155525 | 49 | 0 | 0.0 | 0.0 | 0.00 | 0.09 | 0.01 | 83 | 1024.1 |
| 20260506155025 | 49 | 0 | 0.0 | 0.0 | 0.00 | 0.09 | 0.01 | 81 | 1024.1 |
| 20260506154550 | 50 | 0 | 0.0 | 0.0 | 0.00 | 0.09 | 0.01 | 81 | 1024.1 |
| 20260506154025 | 50 | 0 | 0.0 | 0.0 | 0.00 | 0.09 | 0.01 | 81 | 1024.0 |
| 20260506153526 | 49 | 0 | 0.0 | 0.0 | 0.00 | 0.09 | 0.01 | 82 | 1024.0 |
| 20260506153040 | 49 | 0 | 0.0 | 0.0 | 0.00 | 0.09 | 0.01 | 81 | 1024.0 |
| 20260506152525 | 49 | 0 | 0.0 | 0.0 | 0.00 | 0.09 | 0.01 | 81 | 1023.9 |
| 20260506152026 | 49 | 0 | 0.0 | 0.0 | 0.00 | 0.09 | 0.01 | 82 | 1023.9 |
| 20260506151545 | 49 | 0 | 0.0 | 0.0 | 0.00 | 0.09 | 0.01 | 81 | 1023.9 |
| 20260506151025 | 49 | 0 | 0.0 | 0.0 | 0.00 | 0.09 | 0.01 | 81 | 1023.7 |
| 20260506150525 | 49 | 0 | 0.0 | 0.0 | 0.00 | 0.09 | 0.01 | 81 | 1023.7 |
| 20260506150045 | 49 | 0 | 0.0 | 0.0 | 0.00 | 0.09 | 0.01 | 81 | 1023.7 |
| 20260506145527 | 49 | 0 | 0.0 | 0.0 | 0.00 | 0.12 | 0.01 | 82 | 1023.7 |
| 20260506145025 | 48 | 0 | 0.0 | 0.0 | 0.00 | 0.12 | 0.01 | 83 | 1023.7 |
| 20260506144544 | 48 | 0 | 0.0 | 0.0 | 0.00 | 0.12 | 0.01 | 84 | 1023.7 |
| 20260506144027 | 48 | 0 | 0.0 | 0.0 | 0.00 | 0.12 | 0.01 | 84 | 1023.5 |
| 20260506143527 | 47 | 0 | 0.0 | 0.0 | 0.00 | 0.12 | 0.01 | 84 | 1023.5 |
| 20260506143040 | 47 | 0 | 0.0 | 0.0 | 0.00 | 0.12 | 0.01 | 85 | 1023.3 |
| 20260506142528 | 47 | 0 | 0.0 | 0.0 | 0.00 | 0.12 | 0.01 | 85 | 1023.4 |
| 20260506142024 | 47 | 0 | 0.0 | 0.0 | 0.00 | 0.12 | 0.01 | 85 | 1023.3 |
| 20260506141603 | 47 | 0 | 0.0 | 0.0 | 0.00 | 0.12 | 0.01 | 86 | 1023.2 |
| 20260506141025 | 46 | 0 | 0.0 | 0.0 | 0.00 | 0.12 | 0.01 | 89 | 1023.1 |
| 20260506140525 | 45 | 0 | 0.0 | 0.0 | 0.00 | 0.12 | 0.01 | 91 | 1023.1 |
| 20260506140045 | 44 | 0 | 0.0 | 0.0 | 0.00 | 0.12 | 0.01 | 92 | 1023.1 |
| 20260506135524 | 43 | 0 | 0.0 | 0.0 | 0.00 | 0.14 | 0.01 | 92 | 1022.9 |
| 20260506135027 | 42 | 0 | 0.0 | 2.0 | 0.01 | 0.14 | 0.01 | 92 | 1022.9 |
| 20260506134548 | 42 | 0 | 0.0 | 2.0 | 0.01 | 0.14 | 0.01 | 92 | 1022.8 |
| 20260506134027 | 42 | 183 | 1.0 | 2.0 | 0.01 | 0.14 | 0.01 | 92 | 1022.7 |
| 20260506133528 | 41 | 0 | 0.0 | 0.0 | 0.01 | 0.14 | 0.01 | 93 | 1022.7 |
| 20260506133041 | 41 | 0 | 0.0 | 0.0 | 0.01 | 0.14 | 0.01 | 93 | 1022.7 |
| 20260506132525 | 41 | 0 | 0.0 | 0.0 | 0.01 | 0.14 | 0.01 | 93 | 1022.6 |
| 20260506132025 | 41 | 0 | 0.0 | 0.0 | 0.01 | 0.14 | 0.01 | 93 | 1022.5 |
| 20260506131540 | 41 | 0 | 0.0 | 0.0 | 0.01 | 0.14 | 0.01 | 93 | 1022.4 |
| 20260506131025 | 41 | 0 | 0.0 | 0.0 | 0.01 | 0.14 | 0.01 | 93 | 1022.4 |
| 20260506130526 | 41 | 0 | 0.0 | 0.0 | 0.01 | 0.14 | 0.01 | 93 | 1022.4 |
| 20260506130040 | 41 | 0 | 0.0 | 0.0 | 0.01 | 0.14 | 0.01 | 93 | 1022.3 |
| 20260506125524 | 41 | 0 | 0.0 | 0.0 | 0.01 | 0.16 | 0.01 | 92 | 1022.2 |
| 20260506125027 | 42 | 0 | 0.0 | 0.0 | 0.00 | 0.15 | 0.00 | 92 | 1022.1 |
| 20260506124546 | 42 | 0 | 0.0 | 0.0 | 0.00 | 0.15 | 0.00 | 92 | 1022.1 |
| 20260506124025 | 42 | 0 | 0.0 | 0.0 | 0.00 | 0.15 | 0.00 | 92 | 1022.0 |
| 20260506123525 | 42 | 0 | 0.0 | 0.0 | 0.00 | 0.15 | 0.00 | 92 | 1022.0 |
| 20260506123046 | 42 | 0 | 0.0 | 0.0 | 0.00 | 0.15 | 0.00 | 92 | 1022.0 |
| 20260506122526 | 42 | 0 | 0.0 | 0.0 | 0.00 | 0.15 | 0.00 | 92 | 1021.9 |
| 20260506122025 | 42 | 0 | 0.0 | 0.0 | 0.00 | 0.15 | 0.00 | 92 | 1021.7 |
| 20260506121548 | 42 | 0 | 0.0 | 0.0 | 0.00 | 0.15 | 0.00 | 91 | 1021.8 |
| 20260506121026 | 42 | 0 | 0.0 | 0.0 | 0.00 | 0.15 | 0.00 | 91 | 1021.6 |
| 20260506120525 | 43 | 0 | 0.0 | 0.0 | 0.00 | 0.15 | 0.00 | 91 | 1021.6 |
| 20260506120118 | 43 | 0 | 0.0 | 0.0 | 0.00 | 0.15 | 0.00 | 91 | 1021.6 |
| 20260506115524 | 43 | 0 | 0.0 | 0.0 | 0.00 | 0.17 | 0.00 | 91 | 1021.5 |
| 20260506115025 | 43 | 0 | 0.0 | 0.0 | 0.00 | 0.17 | 0.00 | 91 | 1021.4 |
| 20260506114543 | 43 | 0 | 0.0 | 0.0 | 0.00 | 0.17 | 0.00 | 90 | 1021.4 |
| 20260506114024 | 43 | 0 | 0.0 | 0.0 | 0.00 | 0.17 | 0.00 | 91 | 1021.3 |
| 20260506113526 | 43 | 0 | 0.0 | 0.0 | 0.00 | 0.17 | 0.00 | 91 | 1021.3 |
| 20260506113043 | 43 | 0 | 0.0 | 0.0 | 0.00 | 0.17 | 0.00 | 90 | 1021.2 |
| 20260506112526 | 43 | 0 | 0.0 | 0.0 | 0.00 | 0.17 | 0.00 | 90 | 1021.2 |
| 20260506112025 | 43 | 0 | 0.0 | 0.0 | 0.00 | 0.17 | 0.00 | 90 | 1021.0 |
| 20260506111541 | 43 | 0 | 0.0 | 0.0 | 0.00 | 0.17 | 0.00 | 89 | 1021.1 |
| 20260506111025 | 44 | 0 | 0.0 | 0.0 | 0.00 | 0.17 | 0.00 | 89 | 1021.0 |
| 20260506110525 | 44 | 0 | 0.0 | 0.0 | 0.00 | 0.17 | 0.00 | 90 | 1020.9 |
| 20260506110041 | 44 | 0 | 0.0 | 0.0 | 0.00 | 0.17 | 0.00 | 90 | 1020.9 |
| 20260506105525 | 44 | 0 | 0.0 | 0.0 | 0.00 | 0.18 | 0.00 | 90 | 1020.8 |
| 20260506105024 | 44 | 0 | 0.0 | 0.0 | 0.00 | 0.18 | 0.00 | 89 | 1020.7 |
| 20260506104548 | 44 | 0 | 0.0 | 0.0 | 0.00 | 0.18 | 0.00 | 89 | 1020.7 |
| 20260506104025 | 44 | 0 | 0.0 | 0.0 | 0.00 | 0.18 | 0.00 | 89 | 1020.7 |
| 20260506103525 | 44 | 0 | 0.0 | 0.0 | 0.00 | 0.18 | 0.00 | 89 | 1020.6 |
| 20260506103046 | 44 | 0 | 0.0 | 0.0 | 0.00 | 0.18 | 0.00 | 89 | 1020.5 |
| 20260506102525 | 44 | 0 | 0.0 | 0.0 | 0.00 | 0.18 | 0.00 | 89 | 1020.5 |
| 20260506102028 | 44 | 0 | 0.0 | 0.0 | 0.00 | 0.18 | 0.00 | 89 | 1020.3 |
| 20260506101548 | 44 | 0 | 0.0 | 0.0 | 0.00 | 0.18 | 0.00 | 88 | 1020.4 |
| 20260506101026 | 44 | 0 | 0.0 | 0.0 | 0.00 | 0.18 | 0.00 | 88 | 1020.3 |
| 20260506100525 | 44 | 0 | 0.0 | 0.0 | 0.00 | 0.18 | 0.00 | 88 | 1020.4 |
| 20260506100043 | 44 | 0 | 0.0 | 0.0 | 0.00 | 0.18 | 0.00 | 88 | 1020.2 |
| 20260506095526 | 44 | 0 | 0.0 | 0.0 | 0.00 | 0.20 | 0.00 | 88 | 1020.2 |
| 20260506095025 | 45 | 0 | 0.0 | 0.0 | 0.00 | 0.20 | 0.00 | 87 | 1020.2 |
| 20260506094545 | 45 | 0 | 0.0 | 0.0 | 0.00 | 0.20 | 0.00 | 87 | 1020.2 |
| 20260506094025 | 45 | 0 | 0.0 | 0.0 | 0.00 | 0.20 | 0.00 | 86 | 1020.2 |
| 20260506093526 | 45 | 0 | 0.0 | 0.0 | 0.00 | 0.20 | 0.00 | 86 | 1020.1 |
| 20260506093046 | 45 | 0 | 0.0 | 2.0 | 0.00 | 0.20 | 0.00 | 86 | 1020.2 |
| 20260506092525 | 45 | 0 | 0.0 | 2.0 | 0.00 | 0.20 | 0.00 | 85 | 1020.2 |
| 20260506092025 | 45 | 0 | 1.0 | 2.0 | 0.00 | 0.20 | 0.00 | 85 | 1020.1 |
| 20260506091545 | 45 | 0 | 0.0 | 2.0 | 0.00 | 0.20 | 0.00 | 85 | 1020.1 |
| 20260506091027 | 45 | 183 | 1.0 | 2.0 | 0.00 | 0.20 | 0.00 | 85 | 1020.0 |
| 20260506090526 | 45 | 0 | 0.0 | 0.0 | 0.00 | 0.20 | 0.00 | 85 | 1020.0 |
| 20260506090044 | 45 | 0 | 0.0 | 3.0 | 0.00 | 0.20 | 0.00 | 85 | 1020.0 |
| 20260506085525 | 45 | 0 | 0.0 | 3.0 | 0.00 | 0.23 | 0.00 | 85 | 1020.0 |
| 20260506085025 | 45 | 0 | 0.0 | 3.0 | 0.00 | 0.23 | 0.00 | 85 | 1019.9 |
| 20260506084541 | 44 | 0 | 0.0 | 0.0 | 0.00 | 0.23 | 0.00 | 86 | 1019.9 |
| 20260506084026 | 44 | 0 | 0.0 | 2.0 | 0.00 | 0.23 | 0.00 | 85 | 1019.9 |
| 20260506083528 | 44 | 0 | 0.0 | 3.0 | 0.00 | 0.23 | 0.00 | 86 | 1019.9 |
| 20260506083044 | 44 | 183 | 2.0 | 3.0 | 0.00 | 0.23 | 0.00 | 86 | 1019.9 |
| 20260506082525 | 44 | 0 | 0.0 | 0.0 | 0.00 | 0.23 | 0.00 | 86 | 1019.9 |
| 20260506082024 | 44 | 0 | 0.0 | 0.0 | 0.00 | 0.23 | 0.00 | 86 | 1019.9 |
| 20260506081550 | 44 | 0 | 0.0 | 0.0 | 0.00 | 0.23 | 0.00 | 86 | 1019.9 |
| 20260506081025 | 44 | 0 | 0.0 | 0.0 | 0.00 | 0.23 | 0.00 | 86 | 1019.9 |
| 20260506080528 | 44 | 0 | 0.0 | 0.0 | 0.00 | 0.23 | 0.00 | 86 | 1019.8 |
| 20260506073524 | 45 | 0 | 0.0 | 0.0 | 0.00 | 0.27 | 0.00 | 84 | 1019.8 |
| 20260506073043 | 45 | 0 | 0.0 | 0.0 | 0.00 | 0.27 | 0.00 | 83 | 1019.6 |
| 20260506072524 | 45 | 0 | 0.0 | 0.0 | 0.00 | 0.27 | 0.00 | 83 | 1019.6 |
| 20260506072025 | 45 | 0 | 0.0 | 0.0 | 0.00 | 0.27 | 0.00 | 83 | 1019.6 |
| 20260506071548 | 45 | 0 | 0.0 | 0.0 | 0.00 | 0.27 | 0.00 | 84 | 1019.5 |
| 20260506071026 | 45 | 0 | 0.0 | 1.0 | 0.00 | 0.27 | 0.00 | 83 | 1019.4 |
| 20260506070525 | 45 | 0 | 0.0 | 3.0 | 0.00 | 0.27 | 0.00 | 83 | 1019.3 |
| 20260506062024 | 46 | 0 | 0.0 | 1.0 | 0.00 | 0.29 | 0.27 | 81 | 1018.9 |
| 20260506061542 | 45 | 0 | 0.0 | 2.0 | 0.00 | 0.29 | 0.27 | 82 | 1018.9 |
| 20260506061026 | 45 | 183 | 0.0 | 2.0 | 0.00 | 0.29 | 0.27 | 82 | 1018.8 |
| 20260506060524 | 45 | 0 | 0.0 | 3.0 | 0.00 | 0.29 | 0.27 | 83 | 1018.7 |
| 20260506051024 | 47 | 0 | 0.0 | 0.0 | 0.00 | 0.30 | 0.27 | 81 | 1018.4 |
| 20260506050524 | 47 | 0 | 0.0 | 0.0 | 0.00 | 0.30 | 0.27 | 80 | 1018.3 |
| 20260506045026 | 47 | 0 | 0.0 | 0.0 | 0.00 | 0.32 | 0.27 | 80 | 1018.2 |
| 20260506044552 | 47 | 0 | 0.0 | 0.0 | 0.00 | 0.32 | 0.27 | 81 | 1018.2 |
| 20260506044027 | 47 | 0 | 0.0 | 0.0 | 0.00 | 0.32 | 0.27 | 79 | 1018.2 |
| 20260506043530 | 47 | 0 | 0.0 | 0.0 | 0.00 | 0.32 | 0.27 | 80 | 1018.0 |
| 20260506043038 | 47 | 0 | 0.0 | 0.0 | 0.00 | 0.32 | 0.27 | 82 | 1018.0 |
| 20260506042527 | 47 | 0 | 0.0 | 0.0 | 0.00 | 0.32 | 0.27 | 83 | 1018.0 |
| 20260506042024 | 46 | 0 | 0.0 | 0.0 | 0.00 | 0.32 | 0.27 | 83 | 1017.9 |
| 20260506041552 | 46 | 0 | 0.0 | 0.0 | 0.00 | 0.32 | 0.27 | 83 | 1017.8 |
| 20260506041025 | 46 | 0 | 0.0 | 0.0 | 0.00 | 0.32 | 0.27 | 83 | 1017.8 |
| 20260506040526 | 46 | 0 | 0.0 | 0.0 | 0.00 | 0.32 | 0.27 | 82 | 1017.6 |
| 20260506040046 | 46 | 0 | 0.0 | 0.0 | 0.00 | 0.32 | 0.27 | 84 | 1017.6 |
| 20260506035527 | 47 | 0 | 0.0 | 0.0 | 0.00 | 0.35 | 0.27 | 84 | 1017.4 |
| 20260506035026 | 47 | 0 | 0.0 | 1.0 | 0.00 | 0.35 | 0.27 | 84 | 1017.4 |
| 20260506034542 | 47 | 0 | 0.0 | 2.0 | 0.00 | 0.35 | 0.27 | 84 | 1017.3 |
| 20260506034046 | 47 | 0 | 0.0 | 3.0 | 0.00 | 0.35 | 0.27 | 83 | 1017.1 |